When you browse on this site, cookies collect data to enhance your experience and personalize the content and advertising you see.
Visit our Privacy Policy to learn more. By continuing to use the site, you agree to this use of cookies and data.

Previsão horária em Grijó

Hoje, 24 Setembro, Quinta-feira

Tempo Temperatura Precipitação Vento Pressão Humidade
00:00 +15°C° 0 mm 0 m/s 752 mmHg 87%
01:00 +15°C° 0 mm 0 m/s 751 mmHg 87%
02:00 +15°C° 0 mm 0 m/s 751 mmHg 87%
03:00 +15°C° 0 mm 0 m/s 751 mmHg 87%
04:00 +16°C° 0 mm 1 m/s 752 mmHg 87%
05:00 +16°C° 0 mm 1 m/s 752 mmHg 86%
06:00 +18°C° 0 mm 1 m/s 752 mmHg 83%
07:00 +18°C° 0 mm 2 m/s 752 mmHg 80%
08:00 +19°C° 0 mm 2 m/s 753 mmHg 77%
09:00 +19°C° 0.1 mm 2 m/s 753 mmHg 74%
10:00 +19°C° 0.1 mm 3 m/s 753 mmHg 71%
11:00 +20°C° 0.1 mm 3 m/s 754 mmHg 68%
12:00 +20°C° 0 mm 4 m/s 754 mmHg 62%
13:00 +20°C° 0 mm 4 m/s 754 mmHg 56%
14:00 +21°C° 0 mm 4 m/s 754 mmHg 51%
15:00 +20°C° 0 mm 4 m/s 754 mmHg 56%
16:00 +19°C° 0 mm 4 m/s 754 mmHg 62%
17:00 +18°C° 0 mm 3 m/s 754 mmHg 68%
18:00 +17°C° 0.1 mm 3 m/s 755 mmHg 73%
19:00 +17°C° 0.1 mm 3 m/s 755 mmHg 77%
20:00 +16°C° 0.1 mm 3 m/s 756 mmHg 82%
21:00 +15°C° 0 mm 4 m/s 756 mmHg 82%
22:00 +14°C° 0 mm 4 m/s 757 mmHg 82%
23:00 +14°C° 0 mm 4 m/s 757 mmHg 82%

Amanhã, 25 Setembro, Sexta-feira

Tempo Temperatura Precipitação Vento Pressão Humidade
00:00 +14°C° 0 mm 4 m/s 757 mmHg 82%
01:00 +14°C° 0 mm 4 m/s 757 mmHg 82%
02:00 +13°C° 0 mm 4 m/s 757 mmHg 82%
03:00 +13°C° 0 mm 4 m/s 758 mmHg 81%
04:00 +12°C° 0 mm 4 m/s 758 mmHg 80%
05:00 +12°C° 0 mm 4 m/s 758 mmHg 79%
06:00 +13°C° 0 mm 4 m/s 759 mmHg 71%
07:00 +14°C° 0 mm 4 m/s 759 mmHg 64%
08:00 +17°C° 0 mm 4 m/s 760 mmHg 57%
09:00 +17°C° 0 mm 5 m/s 760 mmHg 53%
10:00 +19°C° 0 mm 5 m/s 760 mmHg 50%
11:00 +20°C° 0 mm 5 m/s 760 mmHg 46%
12:00 +20°C° 0 mm 6 m/s 760 mmHg 46%
13:00 +20°C° 0 mm 6 m/s 760 mmHg 45%
14:00 +21°C° 0 mm 7 m/s 760 mmHg 45%
15:00 +20°C° 0 mm 7 m/s 760 mmHg 49%
16:00 +19°C° 0 mm 6 m/s 760 mmHg 52%
17:00 +17°C° 0 mm 6 m/s 760 mmHg 56%
18:00 +16°C° 0 mm 6 m/s 760 mmHg 59%
19:00 +15°C° 0 mm 6 m/s 760 mmHg 62%
20:00 +14°C° 0 mm 5 m/s 761 mmHg 65%
21:00 +14°C° 0 mm 5 m/s 761 mmHg 65%
22:00 +13°C° 0 mm 5 m/s 761 mmHg 65%
23:00 +13°C° 0 mm 4 m/s 761 mmHg 65%

Depois de amanhã, 26 Setembro, Sábado

Tempo Temperatura Precipitação Vento Pressão Humidade
00:00 +12°C° 0 mm 4 m/s 760 mmHg 65%
01:00 +12°C° 0 mm 4 m/s 760 mmHg 65%
02:00 +12°C° 0 mm 4 m/s 760 mmHg 66%
03:00 +11°C° 0 mm 4 m/s 760 mmHg 65%
04:00 +11°C° 0 mm 4 m/s 760 mmHg 64%
05:00 +11°C° 0 mm 3 m/s 759 mmHg 64%
06:00 +13°C° 0 mm 3 m/s 759 mmHg 57%
07:00 +16°C° 0 mm 3 m/s 759 mmHg 50%
08:00 +18°C° 0 mm 3 m/s 759 mmHg 43%
09:00 +19°C° 0 mm 3 m/s 759 mmHg 40%
10:00 +21°C° 0 mm 3 m/s 759 mmHg 36%
11:00 +23°C° 0 mm 4 m/s 759 mmHg 32%
12:00 +23°C° 0 mm 4 m/s 758 mmHg 34%
13:00 +25°C° 0 mm 5 m/s 758 mmHg 36%
14:00 +24°C° 0 mm 6 m/s 757 mmHg 38%
15:00 +23°C° 0 mm 6 m/s 757 mmHg 44%
16:00 +21°C° 0 mm 6 m/s 757 mmHg 51%
17:00 +20°C° 0 mm 7 m/s 757 mmHg 58%
18:00 +19°C° 0 mm 6 m/s 757 mmHg 64%
19:00 +17°C° 0 mm 6 m/s 757 mmHg 69%
20:00 +15°C° 0 mm 5 m/s 757 mmHg 75%
21:00 +15°C° 0 mm 5 m/s 757 mmHg 76%
22:00 +15°C° 0 mm 5 m/s 757 mmHg 78%
23:00 +14°C° 0 mm 5 m/s 757 mmHg 80%

27 Setembro, Domingo

Tempo Temperatura Precipitação Vento Pressão Humidade
00:00 +14°C° 0 mm 5 m/s 756 mmHg 81%
01:00 +13°C° 0 mm 4 m/s 756 mmHg 81%
02:00 +13°C° 0 mm 4 m/s 755 mmHg 82%
03:00 +13°C° 0 mm 4 m/s 755 mmHg 81%
04:00 +13°C° 0 mm 4 m/s 755 mmHg 81%
05:00 +13°C° 0 mm 4 m/s 755 mmHg 80%
06:00 +14°C° 0 mm 4 m/s 755 mmHg 73%
07:00 +17°C° 0 mm 4 m/s 755 mmHg 67%
08:00 +19°C° 0 mm 4 m/s 755 mmHg 60%
09:00 +21°C° 0 mm 4 m/s 755 mmHg 56%
10:00 +23°C° 0 mm 5 m/s 755 mmHg 51%
11:00 +25°C° 0 mm 5 m/s 755 mmHg 47%
12:00 +24°C° 0 mm 6 m/s 754 mmHg 47%
13:00 +24°C° 0 mm 6 m/s 754 mmHg 48%
14:00 +24°C° 0 mm 7 m/s 753 mmHg 48%
15:00 +23°C° 0 mm 7 m/s 753 mmHg 54%
16:00 +21°C° 0 mm 7 m/s 753 mmHg 60%
17:00 +20°C° 0 mm 6 m/s 753 mmHg 65%
18:00 +19°C° 0 mm 6 m/s 753 mmHg 70%
19:00 +17°C° 0 mm 5 m/s 753 mmHg 75%
20:00 +16°C° 0 mm 5 m/s 754 mmHg 80%
21:00 +15°C° 0 mm 4 m/s 754 mmHg 81%
22:00 +15°C° 0 mm 4 m/s 754 mmHg 81%
23:00 +16°C° 0 mm 3 m/s 754 mmHg 82%

28 Setembro, Segunda-feira

Tempo Temperatura Precipitação Vento Pressão Humidade
00:00 +16°C° 0 mm 3 m/s 753 mmHg 83%
01:00 +14°C° 0 mm 3 m/s 753 mmHg 83%
02:00 +14°C° 0 mm 3 m/s 753 mmHg 84%
03:00 +14°C° 0 mm 3 m/s 753 mmHg 83%
04:00 +15°C° 0 mm 2 m/s 753 mmHg 83%
05:00 +15°C° 0 mm 2 m/s 753 mmHg 82%
06:00 +16°C° 0 mm 2 m/s 753 mmHg 74%
07:00 +18°C° 0 mm 2 m/s 753 mmHg 66%
08:00 +20°C° 0 mm 2 m/s 753 mmHg 57%
09:00 +22°C° 0 mm 3 m/s 753 mmHg 52%
10:00 +25°C° 0 mm 3 m/s 753 mmHg 46%
11:00 +27°C° 0 mm 4 m/s 753 mmHg 40%
12:00 +27°C° 0 mm 5 m/s 753 mmHg 39%
13:00 +27°C° 0 mm 5 m/s 752 mmHg 39%
14:00 +28°C° 0 mm 6 m/s 752 mmHg 38%
15:00 +26°C° 0 mm 6 m/s 752 mmHg 45%
16:00 +23°C° 0 mm 6 m/s 752 mmHg 51%
17:00 +22°C° 0 mm 6 m/s 752 mmHg 57%
18:00 +21°C° 0 mm 5 m/s 752 mmHg 59%
19:00 +20°C° 0 mm 4 m/s 752 mmHg 62%
20:00 +19°C° 0 mm 4 m/s 753 mmHg 64%
21:00 +19°C° 0 mm 3 m/s 753 mmHg 62%
22:00 +19°C° 0 mm 3 m/s 753 mmHg 61%
23:00 +19°C° 0 mm 3 m/s 753 mmHg 59%

29 Setembro, Terça-feira

Tempo Temperatura Precipitação Vento Pressão Humidade
00:00 +19°C° 0 mm 2 m/s 752 mmHg 59%
01:00 +19°C° 0 mm 2 m/s 752 mmHg 59%
02:00 +18°C° 0 mm 2 m/s 752 mmHg 59%
03:00 +18°C° 0 mm 2 m/s 752 mmHg 59%
04:00 +18°C° 0 mm 2 m/s 752 mmHg 59%
05:00 +18°C° 0 mm 2 m/s 752 mmHg 60%
06:00 +19°C° 0 mm 2 m/s 752 mmHg 56%
07:00 +21°C° 0 mm 2 m/s 752 mmHg 52%
08:00 +23°C° 0 mm 2 m/s 752 mmHg 48%
09:00 +25°C° 0 mm 2 m/s 752 mmHg 44%
10:00 +27°C° 0 mm 2 m/s 752 mmHg 40%
11:00 +28°C° 0 mm 3 m/s 752 mmHg 35%
12:00 +28°C° 0 mm 3 m/s 752 mmHg 38%
13:00 +27°C° 0 mm 4 m/s 751 mmHg 41%
14:00 +27°C° 0 mm 5 m/s 751 mmHg 44%
15:00 +25°C° 0 mm 4 m/s 751 mmHg 51%
16:00 +22°C° 0 mm 4 m/s 751 mmHg 59%
17:00 +21°C° 0 mm 4 m/s 751 mmHg 66%
18:00 +20°C° 0 mm 4 m/s 751 mmHg 72%
19:00 +19°C° 0 mm 4 m/s 752 mmHg 78%
20:00 +18°C° 0 mm 4 m/s 752 mmHg 84%
21:00 +18°C° 0 mm 4 m/s 752 mmHg 87%
22:00 +17°C° 0 mm 4 m/s 752 mmHg 89%
23:00 +17°C° 0 mm 3 m/s 752 mmHg 91%
Mostrar mais